MONITOR-4 (RS57S)

Last updated on Sat Feb 08 2025 00:03:04 GMT+0000 (Coordinated Universal Time)

1 57182U 23091S 25038.76333005 .00012722 00000+0 66868-3 0 9993 2 57182 97.5809 95.7892 0015952 32.1735 328.0468 15.15708778 89092
UTC large
Height (km)
Speed (km/s)
/
Latitude / Longitude
Inclination (degrees)
Orbital Period (minutes)
Azimuth
Elevation
Range (km)
Doppler Factor

Next 0 passes for location: London (51.5072 / 0.1276)

Sorry there are no passes over London.